Weather History for Greenville Downtown, SC

Change the Weather History Date:

Wednesday, December 29, 2010

  Actual Average Record
Temperature  
Mean Temperature 38 °F -  
Max Temperature 48 °F 49 °F 64 °F (1996)
Min Temperature 27 °F 32 °F 24 °F (2000)
Degree Days  
Heating Degree Days 28    
Moisture  
Dew Point 18 °F    
Average Humidity 47    
Maximum Humidity 69    
Minimum Humidity 26    
Precipitation  
Precipitation 0.00 in - - ()
Sea Level Pressure  
Sea Level Pressure 30.14 in    
Wind  
Wind Speed 1 mph (NW)    
Max Wind Speed 6 mph    
Max Gust Speed -    
Visibility 10 miles    
Events      
Averages and records for this station are not official NWS values.
T = Trace of Precipitation, MM = Missing Value Source: NWS Daily Summary

Daily Weather History Graph

Daily Weather History Graph

Search for Another Location

Airport:

Trip Planner

Search our weather history database for the weather conditions in past years. The results will help you decide how hot, cold, wet, or windy it might be!

Date:

Astronomy

Dec. 29, 2010 Rise Set
Actual Time 7:36 AM EST 5:26 PM EST
Civil Twilight 7:08 AM EST 5:54 PM EST
Nautical Twilight 6:36 AM EST 6:26 PM EST
Astronomical Twilight 6:05 AM EST 6:57 PM EST
Moon 1:50 AM EST (12/29) 12:50 PM EST (12/29)
Length of Visible Light 10h 46m
Length of Day
9h 50m
Waning Crescent, 33% of the Moon is Illuminated
Dec 29
Waning Crescent
Jan 4
New
Jan 12
First Quarter
Jan 19
Full
Jan 26
Last Quarter

Hourly Weather History & Observations

Time (EST) Temp. Windchill Dew Point Humidity Pressure Visibility Wind Dir Wind Speed Gust Speed Precip Events Conditions
12:53 AM 30.0 °F - 19.0 °F 64% 30.12 in 10.0 mi Calm Calm - N/A   Clear
1:53 AM 30.0 °F - 19.0 °F 64% 30.11 in 10.0 mi Calm Calm - N/A   Clear
2:53 AM 30.9 °F - 19.0 °F 61% 30.12 in 10.0 mi Calm Calm - N/A   Clear
3:53 AM 28.9 °F - 19.0 °F 67% 30.12 in 10.0 mi Calm Calm - N/A   Clear
4:53 AM 28.0 °F - 19.0 °F 69% 30.12 in 10.0 mi Calm Calm - N/A   Clear
5:53 AM 27.0 °F - 18.0 °F 69% 30.13 in 10.0 mi Calm Calm - N/A   Clear
6:53 AM 28.9 °F 25.2 °F 17.1 °F 61% 30.13 in 10.0 mi North 3.5 mph - N/A   Clear
7:53 AM 32.0 °F - 15.1 °F 50% 30.14 in 10.0 mi Calm Calm - N/A   Clear
8:53 AM 37.9 °F 34.4 °F 19.0 °F 47% 30.15 in 10.0 mi North 4.6 mph - N/A   Clear
9:53 AM 42.1 °F 38.4 °F 16.0 °F 35% 30.17 in 10.0 mi NNW 5.8 mph - N/A   Clear
10:53 AM 45.0 °F 42.6 °F 17.1 °F 33% 30.18 in 10.0 mi NNE 4.6 mph - N/A   Clear
11:53 AM 45.0 °F - 17.1 °F 33% 30.16 in 10.0 mi Calm Calm - N/A   Clear
12:53 PM 48.0 °F - 14.0 °F 26% 30.12 in 10.0 mi WSW 3.5 mph - N/A   Clear
1:53 PM 48.9 °F - 16.0 °F 27% 30.11 in 10.0 mi Calm Calm - N/A   Clear
2:53 PM 48.9 °F - 18.0 °F 29% 30.11 in 10.0 mi Calm Calm - N/A   Clear
3:53 PM 48.9 °F - 17.1 °F 28% 30.11 in 10.0 mi SSW 4.6 mph - N/A   Clear
4:53 PM 46.9 °F - 18.0 °F 32% 30.13 in 10.0 mi WSW 5.8 mph - N/A   Clear
5:53 PM 45.0 °F - 18.0 °F 34% 30.14 in 10.0 mi Calm Calm - N/A   Clear
6:53 PM 39.9 °F - 21.0 °F 47% 30.14 in 10.0 mi Calm Calm - N/A   Clear
7:53 PM 39.0 °F - 19.9 °F 46% 30.14 in 10.0 mi Calm Calm - N/A   Clear
8:53 PM 37.9 °F - 19.9 °F 48% 30.16 in 10.0 mi Calm Calm - N/A   Clear
9:53 PM 37.0 °F - 19.9 °F 50% 30.17 in 10.0 mi Calm Calm - N/A   Clear
10:53 PM 37.0 °F - 19.0 °F 48% 30.17 in 10.0 mi Calm Calm - N/A   Clear
11:53 PM 34.0 °F - 19.0 °F 54% 30.17 in 10.0 mi Calm Calm - N/A   Clear